sat.trackr.live / text

‹ back to catalog

STARLINK-4588

NORAD 53641 · 2022-104BF

PAYLOAD ACTIVE UNKNOWN

§ Identity

Operator
Country
US
Launch date
2022-08-28
Launch site
AFETR
Launch vehicle
Mass (kg)
RCS (m²)

Purposes: comms

External: N2YO · Heavens-Above · Gunter

§ Orbital elements

Epoch: 2026-05-24T17:02:21.707808Z

Period
95.44 min
Inclination
53.2140°
Eccentricity
0.0001397
Mean motion
15.08832104 rev/d
Perigee alt
538.8 km
Apogee alt
540.7 km
Semi-major
6,917.9 km
B*
5.2528e-5
RAAN
242.7154°
Arg perigee
89.7585°
Mean anomaly
270.3568°
Rev number
20,770

§ Raw data

STARLINK-45881 53641U 22104BF  26144.70997347  .00000548  00000+0  52528-4 0  99932 53641  53.2140 242.7154 0001397  89.7585 270.3568 15.08832104207702

JSON: /api/v1/satellites/53641 · /tle

For live sub-satellite position, see the globe view (requires WebGL).

§ Visibility from observer

Set your observer location to see the next 7 days of passes ≥ 10°. The values pass through the URL so the page stays shareable.

No JS? Fill the form by hand. The geolocation button needs JavaScript.